Change the Weather History Date:

Monday, March 29, 2010

  Actual Average Record
Temperature  
Mean Temperature 50 °F 50 °F  
Max Temperature 57 °F 63 °F 84 °F (1907)
Min Temperature 42 °F 38 °F 19 °F (1982)
Degree Days  
Heating Degree Days 15 15  
Month to date heating degree days 589 526  
Since 1 July heating degree days 4169 3743  
Cooling Degree Days 0 0  
Month to date cooling degree days 0 0  
Year to date cooling degree days 0 0  
Moisture  
Dew Point 41 °F    
Average Humidity 76    
Maximum Humidity 100    
Minimum Humidity 51    
Precipitation  
Precipitation T in 0.13 in 3.66 in (1991)
Month to date precipitation 4.18 3.58  
Year to date precipitation 14.53 11.01  
Snow  
Snow 0.00 in 0.00 in 0.50 in (1941)
Month to date snowfall 9.8 1.8  
Since 1 July snowfall 39.2 9.1  
Snow Depth 0.00 in    
Sea Level Pressure  
Sea Level Pressure 29.74 in    
Wind  
Wind Speed 12 mph (NNW)    
Max Wind Speed 26 mph    
Max Gust Speed 35 mph    
Visibility 10 miles    
Events Rain    
T = Trace of Precipitation, MM = Missing Value Source: NWS Daily Summary

Daily Weather History Graph

Daily Weather History Graph

Search for Another Location

Airport or City:

Trip Planner

Search our weather history database for the weather conditions in past years. The results will help you decide how hot, cold, wet, or windy it might be!

Date:

Astronomy

Mar. 29, 2010 Rise Set
Actual Time 7:21 AM EDT 7:49 PM EDT
Civil Twilight 6:55 AM EDT 8:14 PM EDT
Nautical Twilight 6:25 AM EDT 8:44 PM EDT
Astronomical Twilight 5:55 AM EDT 9:15 PM EDT
Moon 7:43 PM EDT (3/29) 6:40 AM EDT (3/29)
Length of Visible Light 13h 19m
Length of Day
12h 28m
Full, 100% of the Moon is Illuminated
Mar 29
Full
Mar 29
Full
Apr 6
Last Quarter
Apr 14
New
Apr 21
First Quarter

Hourly Weather History & Observations

Time (EDT) Temp. Windchill Dew Point Humidity Pressure Visibility Wind Dir Wind Speed Gust Speed Precip Events Conditions
12:54 AM 46.9 °F - 46.0 °F 97% 29.75 in 8.0 mi NNW 6.9 mph - 0.00 in   Overcast
1:54 AM 46.0 °F 43.1 °F 45.0 °F 96% 29.73 in 8.0 mi NNW 5.8 mph - 0.00 in   Mostly Cloudy
2:54 AM 46.0 °F 43.9 °F 44.1 °F 93% 29.73 in 10.0 mi NNW 4.6 mph - N/A   Mostly Cloudy
3:54 AM 46.0 °F 43.9 °F 44.1 °F 93% 29.70 in 10.0 mi NNW 4.6 mph - N/A   Mostly Cloudy
4:54 AM 46.0 °F 42.5 °F 43.0 °F 89% 29.70 in 10.0 mi NW 6.9 mph - N/A   Overcast
5:54 AM 43.0 °F 38.8 °F 41.0 °F 93% 29.69 in 10.0 mi NW 6.9 mph - N/A   Clear
6:54 AM 44.1 °F 41.5 °F 42.1 °F 93% 29.69 in 10.0 mi NNW 4.6 mph - N/A   Clear
7:54 AM 43.0 °F 40.3 °F 41.0 °F 93% 29.71 in 10.0 mi North 4.6 mph - N/A   Clear
8:54 AM 46.9 °F - 43.0 °F 86% 29.72 in 10.0 mi NNW 8.1 mph - N/A   Scattered Clouds
9:54 AM 50.0 °F - 42.1 °F 74% 29.71 in 10.0 mi North 9.2 mph - N/A   Clear
10:54 AM 51.1 °F - 41.0 °F 68% 29.73 in 10.0 mi North 6.9 mph - N/A   Scattered Clouds
11:54 AM 51.1 °F - 42.1 °F 71% 29.74 in 10.0 mi NNW 17.3 mph - 0.00 in Rain Light Rain
12:54 PM 52.0 °F - 39.9 °F 63% 29.72 in 10.0 mi North 15.0 mph 21.9 mph 0.00 in   Overcast
1:54 PM 55.0 °F - 39.9 °F 57% 29.71 in 10.0 mi NNW 13.8 mph 21.9 mph N/A   Overcast
2:54 PM 54.0 °F - 37.9 °F 55% 29.70 in 10.0 mi North 11.5 mph 21.9 mph N/A   Scattered Clouds
3:54 PM 55.9 °F - 37.9 °F 51% 29.68 in 10.0 mi North 16.1 mph 25.3 mph N/A   Clear
4:54 PM 54.0 °F - 39.0 °F 57% 29.69 in 10.0 mi North 17.3 mph 24.2 mph N/A   Partly Cloudy
5:54 PM 50.0 °F - 41.0 °F 71% 29.72 in 10.0 mi North 19.6 mph 29.9 mph N/A   Mostly Cloudy
6:54 PM 46.9 °F - 39.0 °F 74% 29.75 in 10.0 mi NNW 24.2 mph 31.1 mph N/A   Overcast
7:54 PM 46.0 °F 38.5 °F 39.0 °F 76% 29.77 in 10.0 mi NNW 19.6 mph 32.2 mph N/A   Overcast
8:42 PM 46.4 °F 40.4 °F 39.2 °F 76% 29.80 in 10.0 mi North 13.8 mph 20.7 mph N/A   Mostly Cloudy
8:54 PM 45.0 °F 38.5 °F 37.9 °F 76% 29.79 in 10.0 mi North 13.8 mph 26.5 mph N/A   Overcast
9:54 PM 45.0 °F 38.9 °F 37.9 °F 76% 29.80 in 10.0 mi North 12.7 mph 31.1 mph N/A   Mostly Cloudy
10:54 PM 44.6 °F 38.4 °F 37.4 °F 76% 29.83 in 10.0 mi North 12.7 mph 18.4 mph N/A   Overcast
11:54 PM 44.1 °F 37.4 °F 37.9 °F 79% 29.83 in 10.0 mi North 13.8 mph 24.2 mph N/A   Overcast